COSMOS 2251 DEB, 34454

Orbit data source: Space-Track

COSMOS 2251 DEB, 34454 is space debris in LEO originally from a launch on Wed, 16 Jun 1993 UTC launched from the Plesetsk Missile And Space Complex (PKMTR). The debris from Iridium 33, an American commercial communications satellite, has been tracked extensively since its accidental collision with the defunct Russian satellite Cosmos 2251 in 2009. This event, occurring at high speed in low Earth orbit (LEO), generated thousands of pieces of space debris, significantly increasing the risk of further collisions. The Iridium 33 debris cloud has impacted space traffic management and orbital debris mitigation strategies, making it a subject of ongoing study in space situational awareness.

Loading next visibility...
Identifier
34454, 1993-036SX
Orbit
LEO
Country
Flag of CISCIS
Related business
Manufacturer
Unknown
Mission
Spacecraft
Bus & Motor
Unknown
Mass
Unknown
Launch date (UTC)
1993-06-16 (33 years ago)
Launch vehicle
Unknown
Launch site
Plesetsk Missile And Space Complex (PKMTR)
Object type
Payload
Rocket body
Debris
Shape & HBR
Unknown shape, 0.1 m
Radar Cross Section
Small (<0.1 m²)

Expand to show TLE details & history
Last TLE update: 8 hours ago

TLE from 8 hours ago
0 COSMOS 2251 DEB
1 34454U 93036SX  26036.77598586  .00001297  00000-0  42643-3 0  9994
2 34454  74.0586 176.2726 0035879 228.6349 131.1718 14.38912209888598
Epoch: 2026-02-05T18:37Z
TLE epoch observation values (Epoch: 2026-02-05T18:37:25.178Z)
Latitude
-0.00008°
Longitude
120.9943°
Altitude
781.631 km
Speed
7.454 km/s
True Right ascension
11h 45m 05s
True Declination
0° 00' 00"
Sunlit
Object was in full shadow at epoch
Visualization orbit readout
Latitude
Unknown
Longitude
Unknown
Altitude
Unknown
Speed
Unknown
Apparent Right ascension
Unknown
Apparent Declination
Unknown
Sunlit
N/A
Visualization observer readout
Local Sidereal Time
04:53:27
Azimuth
Unknown
Elevation
Unknown
Doppler factor
Unknown
Orbital elements
Apogee altitude
785.323 km
Perigee altitude
734.104 km
Semi-major axis
7,137.851 km
Eccentricity
0.00359
Inclination
74.0586°
RAAN
176.2726°
Arg. of periapsis
228.6349°
True anomaly
131.48037°
Mean anomaly
131.1718°
Eccentric anomaly
131.32618°
Mean motion
3.59908 °/min
Orbital period
100.03 mins
BSTAR
0.00042643

Documentation

Showing up to 5 results
|